Weather History for Plant City, FL

Change the Weather History Date:

Monday, March 11, 2013

  Actual Average Record
Temperature  
Mean Temperature 70 °F -  
Max Temperature 80 °F 78 °F 90 °F (1967)
Min Temperature 59 °F 52 °F 32 °F (1932)
Cooling Degree Days 4    
Growing Degree Days 20 (Base 50)    
Moisture  
Dew Point 56 °F    
Average Humidity 61    
Maximum Humidity 100    
Minimum Humidity 39    
Precipitation  
Precipitation 0.00 in - - ()
Sea Level Pressure  
Sea Level Pressure 30.04 in    
Wind  
Wind Speed 7 mph (SSE)    
Max Wind Speed 17 mph    
Max Gust Speed 23 mph    
Visibility 10 miles    
Events      
Averages and records for this station are not official NWS values.
T = Trace of Precipitation, MM = Missing Value Source: NWS Daily Summary

Daily Weather History Graph

Daily Weather History Graph

Search for Another Location

Airport:

Trip Planner

Search our weather history database for the weather conditions in past years. The results will help you decide how hot, cold, wet, or windy it might be!

Date:

Astronomy

Mar. 11, 2013 Rise Set
Actual Time 7:42 AM EDT 7:35 PM EDT
Civil Twilight 7:18 AM EDT 7:58 PM EDT
Nautical Twilight 6:51 AM EDT 8:25 PM EDT
Astronomical Twilight 6:24 AM EDT 8:53 PM EDT
Moon 7:17 AM EDT (3/11) 7:40 PM EDT (3/11)
Length of Visible Light 12h 39m
Length of Day
11h 52m
Waning Crescent, 0% of the Moon is Illuminated
Mar 11
Waning Crescent
Mar 11
New
Mar 19
First Quarter
Mar 27
Full
Apr 3
Last Quarter

Hourly Weather History & Observations

Time (EDT) Temp. Heat Index Dew Point Humidity Pressure Visibility Wind Dir Wind Speed Gust Speed Precip Events Conditions
12:15 AM 64.4 °F - 55.4 °F 73% 30.13 in 10.0 mi East 9.2 mph - N/A   Clear
12:35 AM 64.4 °F - 55.4 °F 73% 30.13 in 10.0 mi East 5.8 mph - N/A   Clear
1:15 AM 62.6 °F - 55.4 °F 77% 30.13 in 10.0 mi ESE 5.8 mph - N/A   Clear
1:35 AM 62.6 °F - 55.4 °F 77% 30.13 in 10.0 mi ESE 5.8 mph - N/A   Clear
1:55 AM 62.6 °F - 55.4 °F 77% 30.13 in 10.0 mi ESE 4.6 mph - N/A   Clear
2:15 AM 60.8 °F - 55.4 °F 82% 30.12 in 10.0 mi ESE 4.6 mph - N/A   Clear
2:35 AM 60.8 °F - 55.4 °F 82% 30.12 in 10.0 mi ESE 3.5 mph - N/A   Clear
2:55 AM 60.8 °F - 55.4 °F 82% 30.11 in 10.0 mi ESE 3.5 mph - N/A   Clear
3:15 AM 60.8 °F - 55.4 °F 82% 30.10 in 10.0 mi ESE 3.5 mph - N/A   Clear
3:35 AM 59.0 °F - 55.4 °F 88% 30.09 in 10.0 mi East 3.5 mph - N/A   Clear
3:55 AM 59.0 °F - 55.4 °F 88% 30.09 in 10.0 mi ESE 4.6 mph - N/A   Clear
4:15 AM 59.0 °F - 55.4 °F 88% 30.07 in 10.0 mi ESE 4.6 mph - N/A   Clear
4:35 AM 59.0 °F - 55.4 °F 88% 30.07 in 10.0 mi ESE 3.5 mph - N/A   Clear
4:55 AM 59.0 °F - 55.4 °F 88% 30.07 in 10.0 mi East 4.6 mph - N/A   Clear
5:15 AM 59.0 °F - 57.2 °F 94% 30.06 in 10.0 mi ESE 4.6 mph - N/A   Clear
5:35 AM 59.0 °F - 59.0 °F 100% 30.05 in 10.0 mi ESE 4.6 mph - N/A   Clear
5:55 AM 59.0 °F - - N/A% 30.05 in 10.0 mi East 5.8 mph - N/A   Clear
6:15 AM 59.0 °F - - N/A% 30.05 in 10.0 mi ESE 3.5 mph - N/A   Clear
6:35 AM 59.0 °F - - N/A% 30.06 in 10.0 mi East 3.5 mph - N/A   Clear
6:55 AM 59.0 °F - - N/A% 30.06 in 10.0 mi East 3.5 mph - N/A   Clear
7:15 AM 59.0 °F - - N/A% 30.06 in 10.0 mi East 3.5 mph - N/A   Clear
7:35 AM 59.0 °F - - N/A% 30.06 in 10.0 mi East 4.6 mph - N/A   Scattered Clouds
7:55 AM 59.0 °F - - N/A% 30.07 in 10.0 mi East 4.6 mph - N/A   Scattered Clouds
8:15 AM 60.8 °F - - N/A% 30.07 in 10.0 mi East 3.5 mph - N/A   Mostly Cloudy
8:35 AM 60.8 °F - - N/A% 30.07 in 10.0 mi ESE 4.6 mph - N/A   Mostly Cloudy
8:55 AM 62.6 °F - - N/A% 30.07 in 10.0 mi ESE 5.8 mph - N/A   Mostly Cloudy
9:15 AM 64.4 °F - 59.0 °F 83% 30.07 in 10.0 mi SE 6.9 mph - N/A   Scattered Clouds
9:35 AM 66.2 °F - 59.0 °F 78% 30.08 in 10.0 mi ESE 6.9 mph - N/A   Scattered Clouds
9:55 AM 68.0 °F - 57.2 °F 68% 30.07 in 10.0 mi SE 13.8 mph - N/A   Clear
10:15 AM 71.6 °F - 57.2 °F 60% 30.07 in 10.0 mi SE 9.2 mph - N/A   Scattered Clouds
10:35 AM 71.6 °F - 57.2 °F 60% 30.07 in 10.0 mi SE 6.9 mph 16.1 mph N/A   Scattered Clouds
10:55 AM 73.4 °F - 57.2 °F 57% 30.07 in 10.0 mi SE 17.3 mph 20.7 mph N/A   Scattered Clouds
11:15 AM 73.4 °F - 57.2 °F 57% 30.06 in 10.0 mi SE 17.3 mph 23.0 mph N/A   Scattered Clouds
11:35 AM 75.2 °F - 57.2 °F 53% 30.06 in 10.0 mi SE 16.1 mph 21.9 mph N/A   Scattered Clouds
11:55 AM 75.2 °F - 57.2 °F 53% 30.07 in 10.0 mi South 13.8 mph 19.6 mph N/A   Mostly Cloudy
12:15 PM 75.2 °F - 55.4 °F 50% 30.07 in 10.0 mi South 9.2 mph 17.3 mph N/A   Mostly Cloudy
12:35 PM 77.0 °F - 57.2 °F 50% 30.08 in 10.0 mi SSE 9.2 mph - N/A   Mostly Cloudy
12:55 PM 77.0 °F - 57.2 °F 50% 30.08 in 10.0 mi SE 9.2 mph - N/A   Mostly Cloudy
1:15 PM 78.8 °F - 55.4 °F 44% 30.08 in 10.0 mi South 10.4 mph 18.4 mph N/A   Mostly Cloudy
1:35 PM 78.8 °F - 55.4 °F 44% 30.07 in 10.0 mi South 9.2 mph - N/A   Mostly Cloudy
1:55 PM 78.8 °F - 55.4 °F 44% 30.05 in 10.0 mi SSW 12.7 mph - N/A   Overcast
2:15 PM 80.6 °F 80.5 °F 55.4 °F 42% 30.04 in 10.0 mi South 13.8 mph 17.3 mph N/A   Mostly Cloudy
2:35 PM 78.8 °F - 55.4 °F 44% 30.03 in 10.0 mi South 8.1 mph - N/A   Mostly Cloudy
2:55 PM 78.8 °F - 55.4 °F 44% 30.02 in 10.0 mi SSE 8.1 mph - N/A   Overcast
3:15 PM 80.6 °F 80.3 °F 53.6 °F 39% 30.00 in 10.0 mi South 9.2 mph - N/A   Mostly Cloudy
3:35 PM 80.6 °F 80.3 °F 53.6 °F 39% 29.99 in 10.0 mi SSW 10.4 mph 17.3 mph N/A   Mostly Cloudy
3:55 PM 78.8 °F - 53.6 °F 42% 29.98 in 10.0 mi South 6.9 mph - N/A   Mostly Cloudy
4:15 PM 80.6 °F 80.3 °F 53.6 °F 39% 29.97 in 10.0 mi SSW 8.1 mph - N/A   Mostly Cloudy
4:35 PM 80.6 °F 80.3 °F 53.6 °F 39% 29.97 in 10.0 mi South 8.1 mph - N/A   Overcast
4:55 PM 80.6 °F 80.3 °F 53.6 °F 39% 29.98 in 10.0 mi SSW 8.1 mph - N/A   Overcast
5:15 PM 78.8 °F - 55.4 °F 44% 29.97 in 10.0 mi West 11.5 mph 16.1 mph N/A   Overcast
5:35 PM 78.8 °F - 55.4 °F 44% 29.98 in 10.0 mi WNW 10.4 mph - N/A   Overcast
5:55 PM 77.0 °F - 55.4 °F 47% 29.97 in 10.0 mi West 11.5 mph 17.3 mph N/A   Mostly Cloudy
6:15 PM 77.0 °F - 55.4 °F 47% 29.97 in 10.0 mi WSW 10.4 mph - N/A   Scattered Clouds
6:35 PM 75.2 °F - 55.4 °F 50% 29.98 in 10.0 mi West 12.7 mph - N/A   Scattered Clouds
6:55 PM 73.4 °F - 55.4 °F 53% 29.98 in 10.0 mi West 10.4 mph - N/A   Clear
7:15 PM 73.4 °F - 57.2 °F 57% 29.96 in 10.0 mi West 5.8 mph - N/A   Clear
7:35 PM 73.4 °F - 57.2 °F 57% 29.95 in 10.0 mi SSW 5.8 mph - N/A   Clear
7:55 PM 73.4 °F - 57.2 °F 57% 29.94 in 10.0 mi South 6.9 mph - N/A   Clear
8:15 PM 73.4 °F - 55.4 °F 53% 29.94 in 10.0 mi South 6.9 mph - N/A   Clear
8:35 PM 73.4 °F - 55.4 °F 53% 29.95 in 10.0 mi South 9.2 mph - N/A   Clear
8:55 PM 71.6 °F - 55.4 °F 57% 29.96 in 10.0 mi SSW 6.9 mph - N/A   Clear
9:15 PM 71.6 °F - 55.4 °F 57% 29.97 in 10.0 mi SSW 5.8 mph - N/A   Clear
9:35 PM 71.6 °F - 55.4 °F 57% 29.96 in 10.0 mi South 5.8 mph - N/A   Clear
9:55 PM 69.8 °F - 55.4 °F 60% 29.98 in 10.0 mi South 3.5 mph - N/A   Clear
10:15 PM 69.8 °F - 55.4 °F 60% 29.98 in 10.0 mi South 3.5 mph - N/A   Clear
10:35 PM 69.8 °F - 57.2 °F 64% 29.97 in 10.0 mi South 4.6 mph - N/A   Clear
10:55 PM 69.8 °F - 57.2 °F 64% 29.96 in 10.0 mi SSE 6.9 mph - N/A   Clear
11:15 PM 69.8 °F - 57.2 °F 64% 29.96 in 10.0 mi South 8.1 mph - N/A   Clear
11:35 PM 69.8 °F - 57.2 °F 64% 29.96 in 10.0 mi South 6.9 mph - N/A   Clear
11:55 PM 69.8 °F - 59.0 °F 68% 29.96 in 10.0 mi SSE 6.9 mph - N/A   Clear